sat.trackr.live / text

‹ back to catalog

KUIPER-00054

NORAD 64514 · 2025-134Q

PAYLOAD ACTIVE UNKNOWN

§ Identity

Operator
Country
US
Launch date
2025-06-23
Launch site
AFETR
Launch vehicle
Mass (kg)
RCS (m²)

External: N2YO · Heavens-Above · Gunter

§ Orbital elements

Epoch: 2026-09-21T18:04:28.277184Z

Period
97.30 min
Inclination
51.8979°
Eccentricity
0.0000943
Mean motion
14.79933040 rev/d
Perigee alt
628.9 km
Apogee alt
630.2 km
Semi-major
7,007.7 km
B*
9.2476e-5
RAAN
71.0434°
Arg perigee
119.9165°
Mean anomaly
240.1892°
Rev number
6,931

§ Raw data

KUIPER-000541 64514U 25134Q   26264.75310506  .00000484  00000+0  92476-4 0  99992 64514  51.8979  71.0434 0000943 119.9165 240.1892 14.79933040 69313

JSON: /api/v1/satellites/64514 · /tle

For live sub-satellite position, see the globe view (requires WebGL).

§ Visibility from observer

Set your observer location to see the next 7 days of passes ≥ 10°. The values pass through the URL so the page stays shareable.

No JS? Fill the form by hand. The geolocation button needs JavaScript.